Home > Weather > Ras al-Khaimah > Past weeks

Flag for United Arab Emirates Past Weather in Ras al-Khaimah, Ras al-Khaimah, United Arab Emirates — Yesterday and Last 2 Weeks

Now
77 °F

Clear.


Feels Like: 78 °F
Forecast: 83 / 108 °F
Wind: 3 mph from South

Location: Ras Al Khaimah International Airport

Current Time: Aug 29, 2016 at 4:24:18 AM

Latest Report: Aug 29, 2016 at 4:00 AM


Visibility: 10 mi

Pressure: 29.62 "Hg

Humidity: 42%

Dew Point: 52 °F

Location of Ras al-KhaimahLocation

Past Weather in Ras al-Khaimah — Graph

°F

Ras al-Khaimah Temperature Yesterday

Maximum temperature yesterday: 113 °F (at 2:00 PM)
Minimum temperature yesterday: 79 °F (at 5:00 AM)
Average temperature yesterday: 95 °F

High & Low Weather Summary for the Past Weeks

 TemperatureHumidityPressure
High113 °F (Aug 17, 12:00 PM)94% (Aug 28, 4:00 AM)29.71 "Hg (Aug 28, 4:00 AM)
Low79 °F (Aug 15, 5:00 AM)1% (Aug 18, 10:00 PM)29.39 "Hg (Aug 17, 3:00 PM)
Average96 °F33%29.55 "Hg
* Reported Aug 14 3:00 AM — Aug 29 3:00 AM, Ras al-Khaimah, Weather by CustomWeather, © 2016

Note: Actual official high and low records may vary slightly from our data, if they occured in-between our weather recording intervals... More about our weather records

Advertising

Ras al-Khaimah Weather History for the Previous 24 Hours

Scroll right to see more
 ConditionsComfort  
Time TempWeatherWind HumidityBarometerVisibility
3:00 AM
Mon, Aug 29
84 °FClear.5 mph51%29.62 "Hg10 mi
2:00 AM84 °FClear.6 mph29%29.62 "Hg10 mi
1:00 AM86 °FClear.2 mph11%29.62 "Hg10 mi
12:00 AM86 °FClear.6 mph11%29.62 "Hg10 mi
11:00 PM
Sun, Aug 28
88 °FClear.2 mph18%29.62 "Hg10 mi
10:00 PM88 °FClear.2 mph22%29.62 "Hg10 mi
9:00 PM91 °FClear.2 mph21%29.62 "Hg10 mi
8:00 PM97 °FClear.3 mph18%29.62 "Hg10 mi
7:00 PM104 °FClear.3 mph12%29.59 "Hg10 mi
6:00 PM109 °FSunny.14 mph4%29.59 "Hg10 mi
5:00 PM111 °FSunny.17 mph4%29.56 "Hg10 mi
4:00 PM113 °FSunny.17 mph5%29.56 "Hg10 mi
3:00 PM113 °FPassing clouds.17 mph4%29.59 "HgN/A
2:00 PM113 °FPassing clouds.18 mph4%29.59 "HgN/A
1:00 PM108 °FPassing clouds.14 mph25%29.62 "HgN/A
12:00 PM104 °FSunny.8 mph35%29.65 "Hg10 mi
11:00 AM102 °FSunny.8 mph42%29.65 "Hg10 mi
10:00 AM99 °FSunny.7 mph53%29.65 "Hg10 mi
9:00 AM97 °FSunny.5 mph50%29.65 "Hg10 mi
8:00 AM86 °FHaze.2 mph84%29.65 "Hg3 mi
7:00 AM79 °FFog.3 mph94%29.65 "Hg0 mi
6:00 AM79 °FScattered clouds.3 mph94%29.65 "Hg1 mi
5:00 AM79 °FWarm.No wind94%29.62 "Hg1 mi
4:00 AM81 °FFog.2 mph94%29.62 "Hg0 mi
Weather by CustomWeather, © 2016

See weather overviewHow to use our weather pages